Regional Weather Roundup
Issued by NWS

Home | Current Version | Previous Version | Text Only | Print | Product List | Glossary On
Versions: 1 2 3 4 5 6 7 8 9 10 11 12 13 14 15 16 17 18 19 20 21 22 23 24 25 26 27 28 29 30 31 32 33 34 35 36 37 38 39 40 41 42 43 44 45 46 47 48 49 50
000
ASUS43 KDTX 290910
RWRMI
MICHIGAN HOURLY REGIONAL WEATHER ROUNDUP
NATIONAL WEATHER SERVICE DETROIT/PONTIAC MI
500 AM EDT TUE JUL 29 2014

NOTE: "FAIR" INDICATES FEW OR NO CLOUDS BELOW 12,000 FEET WITH NO
SIGNIFICANT WEATHER AND/OR OBSTRUCTION TO VISIBILITY.

MIZ047>049-052>055-059>063-066>070-074>076-081>083-291000-
SOUTHEAST LOWER MICHIGAN

CITY           SKY/WX    TMP DP  RH WIND       PRES   REMARKS
ADRIAN         CLEAR     48  45  89 SW3       30.01S
ALMA           PTCLDY    47  46  96 CALM      29.99S
ANN ARBOR      CLEAR     47  43  86 CALM      30.00S
BAD AXE        CLEAR     46  45  97 CALM      29.95S
DETROIT CITY   CLOUDY    57  47  69 NW3       29.99R
DETROIT        CLOUDY    53  48  83 W5        30.00R
FLINT          CLEAR     51  46  83 SW3       29.99R
GROSSE ILE     CLOUDY    54  48  82 W6        29.98S
HILLSDALE      CLEAR     47  47 100 CALM      30.01S
HOWELL         CLEAR     47  46  95 SW3       30.00S

CITY           SKY/WX    TMP DP  RH WIND       PRES   REMARKS
JACKSON        CLEAR     49  47  93 W3        30.01S
LAMBERTVILLE   CLEAR     50  46  87 CALM      30.01R
LANSING        CLEAR     50  47  89 SW3       30.00S
LAPEER         NOT AVBL
MASON          CLEAR     45  44  95 CALM      30.00S
MONROE         CLEAR     48  46  93 CALM      29.99R
MT. CLEMENS    CLOUDY    56  47  70 W7        29.97R
PONTIAC        CLEAR     53  46  77 W3        29.98S
PORT HOPE        N/A     53  50  89 W5        29.92F
PORT HURON     CLOUDY    54  50  87 CALM      29.97S
TRI CITIES     CLEAR     51  48  89 SW8       29.98S
YPSILANTI      CLOUDY    57  48  72 W6        30.00R
$$
MIZ043>046-050>051-056>058-064>065-071>073-077>080-291000-
SOUTHWEST LOWER MICHIGAN

CITY           SKY/WX    TMP DP  RH WIND       PRES   REMARKS
BATTLE CREEK   CLEAR     51  48  89 SW5       30.01F
BENTON HARBOR  CLEAR     45  44  97 E3        30.02F
BIG RAPIDS     LGT RAIN  50  50 100 CALM      29.98S
COLDWATER      CLEAR     49  48  97 CALM      30.02R FOG
HOLLAND        CLEAR     50  47  89 CALM      30.01F
GRAND RAPIDS   CLEAR     52  50  93 SW5       30.00F
KALAMAZOO      CLEAR     50  46  86 CALM      30.02S
MARSHALL       CLEAR     46  46  99 CALM      30.01R FOG
MUSKEGON       CLOUDY    55  51  86 S3        30.00F
$$
MIZ016>042-291000-
NORTHERN LOWER MICHIGAN

CITY           SKY/WX    TMP DP  RH WIND       PRES   REMARKS
ALPENA         CLOUDY    55  51  86 W6        29.91F
BEAVER ISLAND  MOCLDY    58  56  95 NW5       29.93S
BELLAIRE       MOCLDY    52  49  90 CALM      29.94S
CADILLAC       CLOUDY    52  50  92 SW3       29.96S
CHARLEVOIX     MOCLDY    60  57  92 W6        29.95F
FRANKFORT      MOSUNNY   54  50  87 CALM      29.96S
GAYLORD        CLOUDY    52  49  89 W7        29.94S
GRAYLING       CLOUDY    52  51  95 W3        29.96S
HARBOR SPRINGS CLOUDY    61  57  88 W3        29.92S
HOUGHTON LAKE  CLOUDY    53  49  86 W6        29.96F
MANISTEE       MOCLDY    52  48  87 CALM      29.97F
OSCODA         CLOUDY    55  50  86 W3        29.93S
PELLSTON       MOCLDY    59  56  89 W7        29.92S
TRAVERSE CITY  CLOUDY    57  49  74 SW3       29.94S
$$
MIZ007>008-015-291000-
EASTERN UPPER MICHIGAN

CITY           SKY/WX    TMP DP  RH WIND       PRES   REMARKS
KINROSS        CLOUDY    54  52  94 W5        29.90S
MACKINAC ISLAN CLOUDY    57  54  90 W6        29.90S
NEWBERRY       CLOUDY    52  52  99 NW3       29.92R FOG
S. S. MARIE    CLOUDY    52  50  93 W8        29.89S
$$
MIZ004>006-011>014-085-291000-
CENTRAL UPPER MICHIGAN

CITY           SKY/WX    TMP DP  RH WIND       PRES   REMARKS
MANISTIQUE     PTCLDY    54  53  95 NW6       29.93S
ESCANABA       PTCLDY    55  50  82 NW6       29.95S
MENOMINEE      PTCLDY    57  54  88 CALM      29.96F
SAWYER-GWINN   CLEAR     55  51  85 NW8       29.97R
$$
MIZ001>003-009>011-084-291000-
WESTERN UPPER MICHIGAN

CITY           SKY/WX    TMP DP  RH WIND       PRES   REMARKS
IRON MOUNTAIN  PTCLDY    56  52  86 NW7       29.98S
COPPER HARBOR    N/A     59  52  77 N10       29.95S
$$

ABBREVIATIONS USED IN REMARKS
   TC - TEMPERATURE IN CELSIUS
  WCI - WIND CHILL INDEX
   HX - HEAT INDEX
  VSB - VISIBILITY




USA.gov is the U.S. government's official web portal to all federal, state and local government web resources and services.